Weather History for KSDY - March, 2013

Change the Weather History Date:

Thursday, March 21, 2013

  Actual Average Record
Temperature  
Mean Temperature 24 °F -  
Max Temperature 28 °F 48 °F 70 °F (1986)
Min Temperature 21 °F 21 °F -17 °F (1913)
Degree Days  
Heating Degree Days 40    
Moisture  
Dew Point 15 °F    
Average Humidity 68    
Maximum Humidity 93    
Minimum Humidity 47    
Precipitation  
Precipitation 0.00 in - - ()
Sea Level Pressure  
Sea Level Pressure 29.85 in    
Wind  
Wind Speed 12 mph (SE)    
Max Wind Speed 17 mph    
Max Gust Speed 26 mph    
Visibility 7 miles    
Events      
Averages and records for this station are not official NWS values.
T = Trace of Precipitation, MM = Missing Value Source: NWS Daily Summary

Daily Weather History Graph

Daily Weather History Graph

Search for Another Location

Airport or City:

Trip Planner

Search our weather history database for the weather conditions in past years. The results will help you decide how hot, cold, wet, or windy it might be!

Date:

Astronomy

Mar. 21, 2013 Rise Set
Actual Time 6:57 AM MDT 7:11 PM MDT
Civil Twilight 6:26 AM MDT 7:42 PM MDT
Nautical Twilight 5:49 AM MDT 8:18 PM MDT
Astronomical Twilight 5:12 AM MDT 8:56 PM MDT
Moon 1:23 PM MDT (3/21) 3:41 AM MDT (3/21)
Length of Visible Light 13h 16m
Length of Day
12h 14m
Waxing Gibbous, 69% of the Moon is Illuminated
Mar 21
Waxing Gibbous
Mar 27
Full
Apr 2
Last Quarter
Apr 10
New
Apr 18
First Quarter

Hourly Weather History & Observations

Time (MDT) Temp. Windchill Dew Point Humidity Pressure Visibility Wind Dir Wind Speed Gust Speed Precip Events Conditions
12:15 AM 26.6 °F 14.3 °F 15.8 °F 64% 29.85 in 10.0 mi ESE 16.1 mph 20.7 mph N/A   Overcast
12:35 AM 26.6 °F 16.2 °F 15.8 °F 64% 29.86 in 10.0 mi SE 11.5 mph - N/A   Overcast
1:15 AM 26.6 °F 14.3 °F 15.8 °F 64% 29.84 in 10.0 mi SE 16.1 mph - N/A   Overcast
1:35 AM 26.6 °F 15.2 °F 15.8 °F 64% 29.84 in 10.0 mi SE 13.8 mph - N/A   Overcast
1:55 AM 26.6 °F 16.2 °F 15.8 °F 64% 29.84 in 10.0 mi SE 11.5 mph - N/A   Overcast
2:15 AM 24.8 °F 14.0 °F 15.8 °F 69% 29.84 in 10.0 mi ESE 11.5 mph - N/A   Overcast
2:35 AM 24.8 °F 15.3 °F 15.8 °F 69% 29.83 in 10.0 mi SE 9.2 mph - N/A   Overcast
3:15 AM 24.8 °F 13.4 °F 12.2 °F 59% 29.81 in 10.0 mi ESE 12.7 mph - N/A   Mostly Cloudy
3:35 AM 24.8 °F 12.4 °F 14.0 °F 64% 29.81 in 10.0 mi SE 15.0 mph - N/A   Partly Cloudy
3:55 AM 24.8 °F 12.9 °F 12.2 °F 59% 29.81 in 10.0 mi SE 13.8 mph - N/A   Partly Cloudy
4:15 AM 23.0 °F 12.4 °F 12.2 °F 63% 29.81 in 10.0 mi ESE 10.4 mph - N/A   Mostly Cloudy
4:35 AM 23.0 °F 9.6 °F 12.2 °F 63% 29.80 in 10.0 mi ESE 16.1 mph - N/A   Overcast
5:15 AM 21.2 °F 7.8 °F 10.4 °F 63% 29.79 in 10.0 mi ESE 15.0 mph 21.9 mph N/A   Overcast
5:35 AM 21.2 °F 8.9 °F 10.4 °F 63% 29.80 in 10.0 mi ESE 12.7 mph - N/A   Overcast
5:55 AM 21.2 °F 10.1 °F 10.4 °F 63% 29.81 in 10.0 mi ESE 10.4 mph - N/A   Overcast
6:15 AM 21.2 °F 10.1 °F 10.4 °F 63% 29.81 in 10.0 mi SE 10.4 mph - N/A   Mostly Cloudy
6:35 AM 21.2 °F 9.5 °F 10.4 °F 63% 29.80 in 10.0 mi ESE 11.5 mph - N/A   Mostly Cloudy
6:55 AM 21.2 °F 9.5 °F 10.4 °F 63% 29.79 in 10.0 mi ESE 11.5 mph - N/A   Overcast
7:15 AM 21.2 °F 9.5 °F 8.6 °F 58% 29.80 in 10.0 mi SE 11.5 mph - N/A   Overcast
7:35 AM 21.2 °F 8.3 °F 8.6 °F 58% 29.81 in 10.0 mi SE 13.8 mph - N/A   Overcast
8:15 AM 21.2 °F 8.3 °F 6.8 °F 54% 29.80 in 10.0 mi SE 13.8 mph - N/A   Overcast
8:35 AM 21.2 °F 8.9 °F 6.8 °F 54% 29.81 in 10.0 mi SE 12.7 mph 26.5 mph N/A   Overcast
8:55 AM 21.2 °F 7.3 °F 6.8 °F 54% 29.81 in 10.0 mi SE 16.1 mph - N/A   Overcast
9:15 AM 21.2 °F 7.3 °F 6.8 °F 54% 29.81 in 10.0 mi SE 16.1 mph 20.7 mph N/A   Overcast
9:35 AM 21.2 °F 6.8 °F 6.8 °F 54% 29.82 in 10.0 mi SSE 17.3 mph - N/A   Overcast
9:55 AM 21.2 °F 8.3 °F 6.8 °F 54% 29.82 in 10.0 mi SSE 13.8 mph - N/A   Overcast
10:15 AM 23.0 °F 9.6 °F 6.8 °F 50% 29.82 in 10.0 mi SE 16.1 mph - N/A   Overcast
10:35 AM 24.8 °F 11.5 °F 8.6 °F 50% 29.82 in 10.0 mi SE 17.3 mph - N/A   Overcast
10:55 AM 24.8 °F 11.9 °F 8.6 °F 50% 29.82 in 10.0 mi SE 16.1 mph - N/A   Overcast
11:15 AM 26.6 °F 14.7 °F 8.6 °F 47% 29.82 in 10.0 mi SE 15.0 mph - N/A   Overcast
11:55 AM 26.6 °F 15.2 °F 12.2 °F 55% 29.83 in 10.0 mi SE 13.8 mph 19.6 mph N/A   Overcast
12:15 PM 26.6 °F 14.7 °F 10.4 °F 51% 29.83 in 10.0 mi SE 15.0 mph - N/A   Overcast
12:35 PM 28.4 °F 18.5 °F 12.2 °F 51% 29.83 in 10.0 mi SSE 11.5 mph - N/A   Overcast
12:55 PM 28.4 °F 18.5 °F 12.2 °F 51% 29.83 in 10.0 mi SE 11.5 mph - N/A   Overcast
1:55 PM 28.4 °F 18.0 °F 14.0 °F 55% 29.84 in 10.0 mi SE 12.7 mph - N/A   Overcast
2:15 PM 28.4 °F 17.5 °F 12.2 °F 51% 29.84 in 10.0 mi SE 13.8 mph - N/A   Overcast
2:35 PM 26.6 °F 15.7 °F 15.8 °F 64% 29.84 in 10.0 mi ESE 12.7 mph - N/A   Overcast
2:55 PM 26.6 °F 15.2 °F 15.8 °F 64% 29.84 in 10.0 mi ESE 13.8 mph - N/A   Overcast
3:15 PM 24.8 °F 14.0 °F 15.8 °F 69% 29.84 in 9.0 mi ESE 11.5 mph - N/A   Overcast
3:35 PM 24.8 °F 14.6 °F 17.6 °F 74% 29.85 in 4.0 mi ESE 10.4 mph - N/A   Overcast
3:55 PM 24.8 °F 14.6 °F 17.6 °F 74% 29.85 in 5.0 mi SE 10.4 mph - N/A   Overcast
4:15 PM 24.8 °F 15.3 °F 19.4 °F 80% 29.86 in 8.0 mi SE 9.2 mph - N/A   Overcast
4:35 PM 24.8 °F 14.6 °F 19.4 °F 80% 29.87 in 5.0 mi ESE 10.4 mph - N/A   Overcast
5:15 PM 24.8 °F 15.3 °F 19.4 °F 80% 29.87 in 3.0 mi ESE 9.2 mph - N/A   Overcast
5:35 PM 24.8 °F 16.9 °F 19.4 °F 80% 29.88 in 3.0 mi ESE 6.9 mph - N/A   Overcast
5:55 PM 24.8 °F 16.1 °F 19.4 °F 80% 29.88 in 3.0 mi ESE 8.1 mph - N/A   Overcast
6:15 PM 24.8 °F 16.1 °F 21.2 °F 86% 29.89 in 7.0 mi SE 8.1 mph - N/A   Overcast
6:35 PM 24.8 °F 17.9 °F 19.4 °F 80% 29.89 in 9.0 mi SE 5.8 mph - N/A   Overcast
6:55 PM 24.8 °F 19.1 °F 21.2 °F 86% 29.89 in 7.0 mi ESE 4.6 mph - N/A   Overcast
7:35 PM 24.8 °F 19.1 °F 21.2 °F 86% 29.90 in 1.8 mi ESE 4.6 mph - N/A   Overcast
8:15 PM 24.8 °F 17.9 °F 21.2 °F 86% 29.91 in 1.5 mi East 5.8 mph - N/A   Overcast
8:55 PM 24.8 °F 20.5 °F 21.2 °F 86% 29.91 in 0.5 mi East 3.5 mph - N/A   Overcast
9:15 PM 24.8 °F - 21.2 °F 86% 29.91 in 0.5 mi Calm Calm - N/A   Overcast
9:35 PM 24.8 °F 20.5 °F 23.0 °F 93% 29.91 in 0.5 mi ESE 3.5 mph - N/A   Overcast
9:55 PM 24.8 °F 19.1 °F 21.2 °F 86% 29.91 in 0.5 mi ESE 4.6 mph - N/A   Overcast
10:15 PM 24.8 °F 19.1 °F 21.2 °F 86% 29.91 in 0.5 mi ESE 4.6 mph - N/A   Overcast
10:35 PM 24.8 °F 17.9 °F 21.2 °F 86% 29.91 in 0.8 mi ESE 5.8 mph - N/A   Overcast
10:55 PM 24.8 °F 19.1 °F 21.2 °F 86% 29.91 in 1.0 mi ESE 4.6 mph - N/A   Overcast
11:15 PM 24.8 °F 19.1 °F 21.2 °F 86% 29.91 in 1.0 mi SSE 4.6 mph - N/A   Overcast
11:35 PM 24.8 °F - 21.2 °F 86% 29.91 in 1.0 mi Calm Calm - N/A   Overcast
11:55 PM 24.8 °F - 23.0 °F 93% 29.91 in 0.8 mi Calm Calm - N/A   Overcast